Tracking 25711 objects as of 23-May-2022
HD Live streaming from Space Station
objects crossing your sky now

TITAN 3C TRANSTAGE DEB

Track TITAN 3C TRANSTAGE DEB now!
10-day predictions


NORAD ID: 1642
Int'l Code: 1965-082D
Perigee: 620.3 km
Apogee: 655.8 km
Inclination: 32.1 °
Period: 97.3 minutes
Semi major axis: 7009 km
RCS: 2.2943 m2 (large)
Launch date: October 15, 1965
Source: United States (US)
Launch site: AIR FORCE EASTERN TEST RANGE (AFETR)

Note: This is SATELLITE DEBRIS
aabbcc
Your satellite tracking list
Your tracking list is empty




NASA's NSSDC Master Catalog

Two Line Element Set (TLE):
1 01642U 65082D   22142.43538563  .00001267  00000-0  15957-3 0  9998
2 01642  32.0940 259.0626 0025279 160.4795 199.6827 14.79494376 16889
Source of the keplerian elements: AFSPC